Location: Nitra
(48.3167°N, 18.0833°E)
Time: 12:35:50
(UTC+01:00)

STARLINK-1707 - Pass Details

Date: 24 September 2020
Orbit: 378 x 380 km, 53.0° (Epoch: 25 October)

Event Time Altitude Azimuth Distance (km) Brightness Sun altitude
Exits shadow 03:33:10 13° 57° (ENE) 1,255 6.3 -29.4°
Drops below altitude 10° 03:33:32 10° 60° (ENE) 1,397 6.6 -29.4°
Sets 03:35:40 0° 68° (ENE) 2,251 7.9 -29.1°
